| time (UTC) | temp F | wind direction | speed MPH | gust MPH | rain 1hr in | rain 24hr in | rain mn in | humidity % | barometer mb |
| 20260507144028 | 60 | 127 | 1.0 | 4.0 | 0.00 | 0.00 | 0.00 | 47 | |
| 20260507143028 | 60 | 217 | 0.0 | 2.0 | 0.00 | 0.00 | 0.00 | 46 | |
| 20260507142027 | 60 | 109 | 1.0 | 4.0 | 0.00 | 0.00 | 0.00 | 46 | |
| 20260507141027 | 61 | 240 | 1.0 | 3.0 | 0.00 | 0.00 | 0.00 | 46 | |
| 20260507140027 | 61 | 261 | 1.0 | 3.0 | 0.00 | 0.00 | 0.00 | 46 | |
| 20260507135027 | 62 | 187 | 1.0 | 2.0 | 0.00 | 0.00 | 0.00 | 44 | |
| 20260507134027 | 62 | 241 | 1.0 | 3.0 | 0.00 | 0.00 | 0.00 | 41 | |
| 20260507133027 | 62 | 110 | 1.0 | 3.0 | 0.00 | 0.00 | 0.00 | 41 | |
| 20260507132027 | 63 | 231 | 1.0 | 3.0 | 0.00 | 0.00 | 0.00 | 41 | |
| 20260507131027 | 63 | 141 | 2.0 | 4.0 | 0.00 | 0.00 | 0.00 | 40 | |
| 20260507130027 | 63 | 244 | 2.0 | 4.0 | 0.00 | 0.00 | 0.00 | 38 | |
| 20260507125027 | 64 | 231 | 1.0 | 4.0 | 0.00 | 0.00 | 0.00 | 39 | |
| 20260507124027 | 62 | 290 | 1.0 | 2.0 | 0.00 | 0.00 | 0.00 | 41 | |
| 20260507123027 | 62 | 108 | 2.0 | 5.0 | 0.00 | 0.00 | 0.00 | 41 | |
| 20260507122027 | 61 | 144 | 2.0 | 4.0 | 0.00 | 0.00 | 0.00 | 43 | |
| 20260507121027 | 60 | 128 | 1.0 | 4.0 | 0.00 | 0.00 | 0.00 | 46 | |
| 20260507120027 | 62 | 180 | 2.0 | 5.0 | 0.00 | 0.00 | 0.00 | 47 | |
| 20260507115027 | 61 | 219 | 1.0 | 3.0 | 0.00 | 0.00 | 0.00 | 46 | |
| 20260507114028 | 62 | 240 | 1.0 | 4.0 | 0.00 | 0.00 | 0.00 | 48 | |
| 20260507113027 | 61 | 254 | 1.0 | 4.0 | 0.00 | 0.00 | 0.00 | 51 | |
| 20260507112027 | 60 | 108 | 1.0 | 3.0 | 0.00 | 0.00 | 0.00 | 54 | |
| 20260507111027 | 58 | 107 | 1.0 | 2.0 | 0.00 | 0.00 | 0.00 | 58 | |
| 20260507110027 | 58 | 125 | 2.0 | 4.0 | 0.00 | 0.00 | 0.00 | 59 | |
| 20260507105027 | 58 | 286 | 1.0 | 6.0 | 0.00 | 0.00 | 0.00 | 62 | |
| 20260507104027 | 56 | 134 | 2.0 | 6.0 | 0.00 | 0.00 | 0.00 | 66 | |
| 20260507103027 | 55 | 138 | 1.0 | 3.0 | 0.00 | 0.00 | 0.00 | 66 | |
| 20260507102027 | 55 | 43 | 1.0 | 3.0 | 0.00 | 0.00 | 0.00 | 66 | |
| 20260507101027 | 55 | 262 | 1.0 | 4.0 | 0.00 | 0.00 | 0.00 | 67 | |
| 20260507100027 | 54 | 122 | 1.0 | 2.0 | 0.00 | 0.00 | 0.00 | 68 | |
| 20260507095027 | 53 | 245 | 1.0 | 4.0 | 0.00 | 0.00 | 0.00 | 71 | |
| 20260507094027 | 52 | 5 | 2.0 | 6.0 | 0.00 | 0.00 | 0.00 | 73 | |
| 20260507093027 | 52 | 83 | 1.0 | 3.0 | 0.00 | 0.00 | 0.00 | 74 | |
| 20260507092027 | 51 | 187 | 1.0 | 4.0 | 0.00 | 0.00 | 0.00 | 75 | |
| 20260507091027 | 50 | 129 | 1.0 | 4.0 | 0.00 | 0.00 | 0.00 | 78 | |
| 20260507090027 | 50 | 73 | 1.0 | 3.0 | 0.00 | 0.00 | 0.00 | 78 | |
| 20260507085027 | 49 | 154 | 1.0 | 4.0 | 0.00 | 0.00 | 0.00 | 80 | |
| 20260507084027 | 49 | 270 | 1.0 | 2.0 | 0.00 | 0.00 | 0.00 | 81 | |
| 20260507083027 | 48 | 266 | 1.0 | 4.0 | 0.00 | 0.00 | 0.00 | 83 | |
| 20260507082027 | 48 | 98 | 2.0 | 4.0 | 0.00 | 0.00 | 0.00 | 83 | |
| 20260507081028 | 47 | 148 | 1.0 | 2.0 | 0.00 | 0.00 | 0.00 | 84 | |
| 20260507080027 | 47 | 217 | 1.0 | 2.0 | 0.00 | 0.00 | 0.00 | 84 | |
| 20260507075027 | 46 | 67 | 2.0 | 4.0 | 0.00 | 0.00 | 0.00 | 85 | |
| 20260507074027 | 46 | 114 | 2.0 | 4.0 | 0.00 | 0.00 | 0.00 | 85 | |
| 20260507073027 | 46 | 33 | 1.0 | 3.0 | 0.00 | 0.00 | 0.00 | 87 | |
| 20260507072027 | 46 | 104 | 1.0 | 2.0 | 0.00 | 0.00 | 0.00 | 88 | |
| 20260507071027 | 45 | 246 | 1.0 | 4.0 | 0.00 | 0.00 | 0.00 | 88 | |
| 20260507070027 | 45 | 111 | 2.0 | 5.0 | 0.00 | 0.00 | 0.00 | 88 | |
| 20260507065027 | 45 | 101 | 2.0 | 5.0 | 0.00 | 0.00 | 0.00 | 89 | |
| 20260507064027 | 45 | 124 | 2.0 | 3.0 | 0.00 | 0.00 | 0.00 | 89 | |
| 20260507063027 | 44 | 116 | 1.0 | 2.0 | 0.00 | 0.00 | 0.00 | 89 | |
| 20260507062027 | 44 | 96 | 1.0 | 3.0 | 0.00 | 0.00 | 0.00 | 89 | |
| 20260507061027 | 44 | 150 | 1.0 | 4.0 | 0.00 | 0.00 | 0.00 | 90 | |
| 20260507060027 | 43 | 182 | 1.0 | 4.0 | 0.00 | 0.00 | 0.00 | 90 | |
| 20260507055027 | 43 | 138 | 1.0 | 2.0 | 0.00 | 0.00 | 0.00 | 90 | |
| 20260507054027 | 43 | 206 | 1.0 | 2.0 | 0.00 | 0.00 | 0.00 | 90 | |
| 20260507053027 | 43 | 132 | 1.0 | 2.0 | 0.00 | 0.00 | 0.00 | 90 | |
| 20260507052027 | 43 | 137 | 1.0 | 3.0 | 0.00 | 0.00 | 0.00 | 90 | |
| 20260507051027 | 43 | 137 | 1.0 | 2.0 | 0.00 | 0.00 | 0.00 | 91 | |
| 20260507045527 | 42 | 138 | 1.0 | 2.0 | 0.00 | 0.00 | 0.00 | 91 | |
| 20260507044527 | 42 | 132 | 0.0 | 2.0 | 0.00 | 0.00 | 0.00 | 91 | |
| 20260507043527 | 42 | 132 | 0.0 | 2.0 | 0.00 | 0.00 | 0.00 | 91 | |
| 20260507042527 | 42 | 132 | 0.0 | 1.0 | 0.00 | 0.00 | 0.00 | 91 | |
| 20260507041527 | 42 | 132 | 0.0 | 1.0 | 0.00 | 0.00 | 0.00 | 91 | |
| 20260507040527 | 42 | 108 | 0.0 | 2.0 | 0.00 | 0.00 | 0.00 | 92 | |
| 20260507035527 | 42 | 108 | 0.0 | 2.0 | 0.00 | 0.00 | 0.00 | 92 | |
| 20260507034527 | 42 | 108 | 1.0 | 3.0 | 0.00 | 0.00 | 0.00 | 92 | |
| 20260507033527 | 42 | 103 | 1.0 | 2.0 | 0.00 | 0.00 | 0.00 | 92 | |
| 20260507032527 | 42 | 114 | 0.0 | 2.0 | 0.00 | 0.00 | 0.00 | 92 | |
| 20260507031527 | 42 | 114 | 0.0 | 2.0 | 0.00 | 0.00 | 0.00 | 92 | |
| 20260507030527 | 42 | 114 | 0.0 | 2.0 | 0.00 | 0.00 | 0.00 | 92 | |
| 20260507025527 | 42 | 114 | 0.0 | 2.0 | 0.00 | 0.00 | 0.00 | 92 | |
| 20260507024527 | 42 | 114 | 1.0 | 3.0 | 0.00 | 0.00 | 0.00 | 92 | |
| 20260507023527 | 42 | 84 | 0.0 | 1.0 | 0.00 | 0.00 | 0.00 | 91 | |
| 20260507022528 | 42 | 84 | 0.0 | 2.0 | 0.00 | 0.00 | 0.00 | 91 | |
| 20260507021540 | 42 | 84 | 0.0 | 2.0 | 0.00 | 0.00 | 0.00 | 91 | |
| 20260507020527 | 42 | 318 | 0.0 | 2.0 | 0.00 | 0.00 | 0.00 | 91 | |
| 20260507015527 | 42 | 318 | 0.0 | 2.0 | 0.00 | 0.00 | 0.00 | 91 | |
| 20260507014527 | 42 | 318 | 0.0 | 2.0 | 0.00 | 0.00 | 0.00 | 90 | |
| 20260507013528 | 42 | 318 | 0.0 | 2.0 | 0.00 | 0.00 | 0.00 | 90 | |
| 20260507012527 | 42 | 33 | 1.0 | 4.0 | 0.00 | 0.00 | 0.00 | 90 | |
| 20260507011527 | 42 | 96 | 0.0 | 2.0 | 0.00 | 0.00 | 0.00 | 90 | |
| 20260507010527 | 43 | 96 | 0.0 | 2.0 | 0.00 | 0.00 | 0.00 | 90 | |
| 20260507005527 | 43 | 96 | 1.0 | 2.0 | 0.00 | 0.00 | 0.00 | 89 | |
| 20260507004527 | 43 | 96 | 0.0 | 2.0 | 0.00 | 0.00 | 0.00 | 89 | |
| 20260507003527 | 43 | 96 | 1.0 | 2.0 | 0.00 | 0.00 | 0.00 | 89 | |
| 20260507002527 | 43 | 96 | 0.0 | 2.0 | 0.00 | 0.00 | 0.00 | 89 | |
| 20260507001527 | 42 | 96 | 1.0 | 2.0 | 0.00 | 0.00 | 0.00 | 89 | |
| 20260507000527 | 43 | 96 | 0.0 | 2.0 | 0.00 | 0.00 | 0.00 | 89 | |
| 20260506235527 | 43 | 90 | 0.0 | 2.0 | 0.00 | 0.00 | 0.00 | 89 | |
| 20260506234527 | 43 | 90 | 0.0 | 2.0 | 0.00 | 0.00 | 0.00 | 89 | |
| 20260506233527 | 43 | 90 | 0.0 | 2.0 | 0.00 | 0.00 | 0.00 | 88 | |
| 20260506232527 | 43 | 84 | 0.0 | 2.0 | 0.00 | 0.00 | 0.00 | 88 | |
| 20260506231527 | 43 | 84 | 1.0 | 4.0 | 0.00 | 0.00 | 0.00 | 88 | |
| 20260506230527 | 43 | 84 | 0.0 | 2.0 | 0.00 | 0.00 | 0.00 | 87 | |
| 20260506225527 | 44 | 84 | 0.0 | 2.0 | 0.00 | 0.00 | 0.00 | 87 | |
| 20260506224527 | 44 | 82 | 1.0 | 2.0 | 0.00 | 0.00 | 0.00 | 87 | |
| 20260506223527 | 44 | 78 | 1.0 | 3.0 | 0.00 | 0.00 | 0.00 | 86 | |
| 20260506222527 | 44 | 14 | 0.0 | 2.0 | 0.00 | 0.00 | 0.00 | 86 | |
| 20260506221527 | 44 | 108 | 1.0 | 3.0 | 0.00 | 0.00 | 0.00 | 86 | |
| 20260506220527 | 44 | 108 | 0.0 | 2.0 | 0.00 | 0.00 | 0.00 | 86 | |
| 20260506215527 | 45 | 108 | 1.0 | 2.0 | 0.00 | 0.00 | 0.00 | 85 | |
| 20260506214527 | 45 | 107 | 1.0 | 5.0 | 0.00 | 0.00 | 0.00 | 84 | |
| 20260506213527 | 46 | 84 | 1.0 | 3.0 | 0.00 | 0.00 | 0.00 | 83 | |
| 20260506212527 | 46 | 137 | 1.0 | 3.0 | 0.00 | 0.00 | 0.00 | 82 | |
| 20260506211527 | 46 | 156 | 1.0 | 3.0 | 0.00 | 0.00 | 0.00 | 81 | |
| 20260506210527 | 46 | 156 | 1.0 | 2.0 | 0.00 | 0.00 | 0.00 | 80 | |
| 20260506205527 | 46 | 156 | 1.0 | 3.0 | 0.00 | 0.00 | 0.00 | 79 | |
| 20260506204527 | 47 | 156 | 1.0 | 2.0 | 0.00 | 0.00 | 0.00 | 78 | |
| 20260506203527 | 47 | 144 | 2.0 | 6.0 | 0.00 | 0.00 | 0.00 | 77 | |
| 20260506202527 | 48 | 117 | 2.0 | 4.0 | 0.00 | 0.00 | 0.00 | 76 | |
| 20260506201527 | 48 | 141 | 2.0 | 4.0 | 0.00 | 0.00 | 0.00 | 75 | |
| 20260506200527 | 48 | 100 | 2.0 | 5.0 | 0.00 | 0.00 | 0.00 | 74 | |
| 20260506195527 | 49 | 148 | 1.0 | 3.0 | 0.00 | 0.00 | 0.00 | 74 | |
| 20260506194527 | 49 | 139 | 1.0 | 4.0 | 0.00 | 0.00 | 0.00 | 73 | |
| 20260506193527 | 49 | 150 | 1.0 | 3.0 | 0.00 | 0.00 | 0.00 | 71 | |
| 20260506192527 | 50 | 150 | 1.0 | 4.0 | 0.00 | 0.00 | 0.00 | 68 | |
| 20260506191527 | 51 | 138 | 2.0 | 6.0 | 0.00 | 0.00 | 0.00 | 64 | |
| 20260506190527 | 52 | 134 | 2.0 | 5.0 | 0.00 | 0.00 | 0.00 | 61 | |
| 20260506185527 | 52 | 99 | 2.0 | 4.0 | 0.00 | 0.00 | 0.00 | 60 | |
| 20260506184527 | 53 | 124 | 2.0 | 5.0 | 0.00 | 0.00 | 0.00 | 59 | |
| 20260506183527 | 53 | 138 | 2.0 | 4.0 | 0.00 | 0.00 | 0.00 | 57 | |
| 20260506182532 | 54 | 150 | 1.0 | 3.0 | 0.00 | 0.00 | 0.00 | 52 | |
| 20260506181540 | 54 | 139 | 1.0 | 4.0 | 0.00 | 0.00 | 0.00 | 50 | |
| 20260506180527 | 55 | 75 | 1.0 | 3.0 | 0.00 | 0.00 | 0.00 | 50 | |
| 20260506175527 | 55 | 318 | 1.0 | 4.0 | 0.00 | 0.00 | 0.00 | 48 | |
| 20260506174527 | 55 | 166 | 2.0 | 5.0 | 0.00 | 0.00 | 0.00 | 49 | |
| 20260506173527 | 55 | 105 | 2.0 | 4.0 | 0.00 | 0.00 | 0.00 | 49 | |
| 20260506172527 | 56 | 341 | 2.0 | 4.0 | 0.00 | 0.00 | 0.00 | 48 | |
| 20260506171527 | 56 | 82 | 1.0 | 4.0 | 0.00 | 0.00 | 0.00 | 47 | |
| 20260506170527 | 56 | 322 | 2.0 | 4.0 | 0.00 | 0.00 | 0.00 | 47 | |
| 20260506165527 | 55 | 111 | 2.0 | 4.0 | 0.00 | 0.00 | 0.00 | 47 | |
| 20260506164527 | 56 | 48 | 2.0 | 5.0 | 0.00 | 0.00 | 0.00 | 45 | |
| 20260506163527 | 56 | 315 | 2.0 | 4.0 | 0.00 | 0.00 | 0.00 | 44 | |
| 20260506162527 | 55 | 290 | 1.0 | 4.0 | 0.00 | 0.00 | 0.00 | 48 | |
| 20260506161527 | 55 | 300 | 2.0 | 5.0 | 0.00 | 0.00 | 0.00 | 48 | |
| 20260506160527 | 55 | 316 | 1.0 | 3.0 | 0.00 | 0.00 | 0.00 | 48 | |
| 20260506155527 | 56 | 332 | 2.0 | 4.0 | 0.00 | 0.00 | 0.00 | 47 | |
| 20260506154527 | 57 | 357 | 4.0 | 8.0 | 0.00 | 0.00 | 0.00 | 45 | |
| 20260506153527 | 57 | 100 | 2.0 | 5.0 | 0.00 | 0.00 | 0.00 | 44 | |
| 20260506152527 | 57 | 147 | 1.0 | 5.0 | 0.00 | 0.00 | 0.00 | 44 | |
| 20260506151527 | 57 | 356 | 2.0 | 4.0 | 0.00 | 0.00 | 0.00 | 44 | |
| 20260506150527 | 56 | 351 | 2.0 | 6.0 | 0.00 | 0.00 | 0.00 | 48 | |
| 20260506145527 | 57 | 28 | 3.0 | 7.0 | 0.00 | 0.00 | 0.00 | 47 | |
| 20260506144526 | 56 | 307 | 3.0 | 6.0 | 0.00 | 0.00 | 0.00 | 48 |